Погода в Фунтове-1

Россия / Астраханская область     46°14′11″N   48°05′46″E
темп.,
°C
ветер,
м/с
пор.,
м/с
влажн.,
%
обл.,
%
осадки,
мм/ч
давл.,
гПа
погр.,
м
8 мая, сб
сб801:00+14ююз48563 0.0 1018174
04:00+13юз36640 0.0 1018120
07:00+15юз35635 0.0 1018190
10:00+21ююз45403 0.0 1018970
13:00+24ю54310 0.0 10171992
16:00+24ю64295 0.0 10161800
19:00+20ю5633100 0.0 1016721
22:00+16ююв4752100 0.0 1016234
9 мая, вс
вс901:00+15ююв375998 0.0 1015172
04:00+14юв49605 0.0 1014201
07:00+17юв5126499 0.0 1013562
10:00+22ююв9123540 0.0 10121153
13:00+22ююв101344100 0.0 10111308
16:00+23ююв91345100 0.0 10101409
19:00+21ююв6115282 0.0 10091056
22:00+17юв3869100 0.0 1010283
10 мая, пн
пн1001:00+17ю3675100 0.0 1009483
04:00+11зсз101485100 1.6 1010646
07:00+10зсз81381100 3.4 1013701
10:00+11зсз91168100 3.4 1015967
13:00+10з81182100 2.4 1016923
16:00+12з6957100 4.0 10171576
19:00+14сз354910 0.0 1018844
22:00+10сз11620 0.0 101918
11 мая, вт
вт1101:00+9ююз22630 0.0 101921
04:00+8вюв33690 0.0 102143
07:00+10зюз006383 0.0 102283
10:00+15св2245100 0.0 1022890
13:00+18всв543685 0.0 10211690
16:00+18св55365 0.0 10201428
19:00+16ссв333791 0.0 1020978
22:00+13ссв33480 0.0 1020116
12 мая, ср
ср1201:00+12ссз225734 0.0 102052
04:00+11ссв126529 0.0 101935
07:00+12св12671 0.0 1020142
10:00+17в22490 0.0 1019744
13:00+22вюв34400 0.0 10181577
16:00+23юв65384 0.0 10171799
19:00+20юв44510 0.0 1017852
22:00+17ююв34700 0.0 1017146